Location: Ceske Budejovice
(48.9830°N, 14.4670°E)
Time: 17:54:10
(UTC+02:00)

DX 1 - Pass Details

Date: 20 August 2019
Orbit: 620 x 630 km, 98.4° (Epoch: 15 September)

Event Time Altitude Azimuth Distance (km) Brightness Sun altitude
Rises 03:04:21 0° 121° (ESE) 2,890 ? -23.1°
Reaches altitude 10° 03:07:04 10° 103° (ESE) 1,989 ? -22.8°
Maximum altitude 03:10:01 18° 60° (ENE) 1,520 ? -22.6°
Drops below altitude 10° 03:12:59 10° 16° (NNE) 2,001 ? -22.3°
Sets 03:15:44 0° 358° (N) 2,913 ? -22.1°
